Location: Hastringsfeld
(50.9620°N, 10.4787°E)
Time: 17:02:27
(UTC+00:00)

SL-4 R/B - Pass Details

Date: 26 September 2023
Orbit: 417 x 620 km, 51.6° (Epoch: 08 December)

Event Time Altitude Azimuth Distance (km) Brightness Sun altitude
Exits shadow 02:24:05 17° 114° (ESE) 1,168 4.0 -25.5°
Drops below altitude 10° 02:24:58 10° 113° (ESE) 1,525 4.7 -25.4°
Sets 02:27:02 0° 111° (ESE) 2,374 5.8 -25.2°
